• în România
  • Lista ţărilor
  • Pe 7 zile
  • Temperatura apei
  • Hartă satelitară
  • Meteo pe hartă
  • Widget-uri
  • user-avatar
    Intrare

    Meteo pe oră la Ropotamo

    Astăzi, 23 Octombrie, Luni

    Timp Temperatura Precipitaţii Vânt Presiune Umiditate
    00:00 +14°C° 0 mm 4 m/s 758 mmHg 81%
    01:00 +13°C° 0 mm 4 m/s 757 mmHg 84%
    02:00 +13°C° 0 mm 4 m/s 757 mmHg 87%
    03:00 +13°C° 0 mm 4 m/s 756 mmHg 88%
    04:00 +13°C° 0 mm 4 m/s 756 mmHg 90%
    05:00 +13°C° 0 mm 4 m/s 755 mmHg 91%
    06:00 +14°C° 0 mm 4 m/s 755 mmHg 89%
    07:00 +14°C° 0 mm 5 m/s 755 mmHg 87%
    08:00 +15°C° 0 mm 5 m/s 754 mmHg 85%
    09:00 +16°C° 0 mm 5 m/s 754 mmHg 77%
    10:00 +19°C° 0 mm 6 m/s 753 mmHg 70%
    11:00 +20°C° 0 mm 6 m/s 753 mmHg 63%
    12:00 +21°C° 0 mm 6 m/s 752 mmHg 59%
    13:00 +22°C° 0 mm 6 m/s 752 mmHg 56%
    14:00 +23°C° 0 mm 5 m/s 751 mmHg 53%
    15:00 +22°C° 0 mm 5 m/s 751 mmHg 55%
    16:00 +21°C° 0 mm 5 m/s 750 mmHg 57%
    17:00 +20°C° 0 mm 5 m/s 750 mmHg 59%
    18:00 +20°C° 0 mm 5 m/s 750 mmHg 61%
    19:00 +19°C° 0 mm 5 m/s 750 mmHg 62%
    20:00 +19°C° 0 mm 5 m/s 749 mmHg 64%
    21:00 +18°C° 0 mm 4 m/s 749 mmHg 64%
    22:00 +18°C° 0 mm 4 m/s 749 mmHg 64%
    23:00 +18°C° 0 mm 4 m/s 749 mmHg 64%

    Mâine, 24 Octombrie, Marţi

    Timp Temperatura Precipitaţii Vânt Presiune Umiditate
    00:00 +18°C° 0 mm 4 m/s 749 mmHg 65%
    01:00 +18°C° 0 mm 4 m/s 749 mmHg 65%
    02:00 +18°C° 0 mm 4 m/s 749 mmHg 66%
    03:00 +17°C° 0,4 mm 4 m/s 748 mmHg 72%
    04:00 +16°C° 0,4 mm 5 m/s 748 mmHg 78%
    05:00 +16°C° 0,4 mm 5 m/s 748 mmHg 85%
    06:00 +16°C° 1,2 mm 6 m/s 748 mmHg 82%
    07:00 +16°C° 1,2 mm 6 m/s 749 mmHg 80%
    08:00 +17°C° 1,2 mm 7 m/s 749 mmHg 77%
    09:00 +19°C° 0,1 mm 6 m/s 749 mmHg 71%
    10:00 +20°C° 0,1 mm 6 m/s 750 mmHg 64%
    11:00 +21°C° 0,1 mm 6 m/s 750 mmHg 58%
    12:00 +22°C° 0,1 mm 6 m/s 750 mmHg 56%
    13:00 +22°C° 0,1 mm 5 m/s 750 mmHg 55%
    14:00 +22°C° 0,1 mm 5 m/s 750 mmHg 54%
    15:00 +21°C° 0,3 mm 6 m/s 751 mmHg 60%
    16:00 +20°C° 0,3 mm 6 m/s 751 mmHg 65%
    17:00 +19°C° 0,3 mm 6 m/s 751 mmHg 71%
    18:00 +17°C° 0,5 mm 6 m/s 752 mmHg 75%
    19:00 +17°C° 0,5 mm 7 m/s 752 mmHg 80%
    20:00 +17°C° 0,5 mm 7 m/s 753 mmHg 85%
    21:00 +17°C° 0,4 mm 7 m/s 753 mmHg 85%
    22:00 +17°C° 0,4 mm 7 m/s 754 mmHg 86%
    23:00 +17°C° 0,4 mm 7 m/s 754 mmHg 86%

    Poimâine, 25 Octombrie, Miercuri

    Timp Temperatura Precipitaţii Vânt Presiune Umiditate
    00:00 +16°C° 0,4 mm 8 m/s 754 mmHg 87%
    01:00 +16°C° 0,4 mm 9 m/s 755 mmHg 87%
    02:00 +16°C° 0,4 mm 10 m/s 755 mmHg 87%
    03:00 +16°C° 0,3 mm 10 m/s 755 mmHg 87%
    04:00 +14°C° 0,3 mm 10 m/s 756 mmHg 87%
    05:00 +14°C° 0,3 mm 11 m/s 756 mmHg 87%
    06:00 +13°C° 0,2 mm 11 m/s 757 mmHg 86%
    07:00 +13°C° 0,2 mm 11 m/s 757 mmHg 85%
    08:00 +12°C° 0,2 mm 11 m/s 758 mmHg 84%
    09:00 +12°C° 0,2 mm 11 m/s 759 mmHg 83%
    10:00 +12°C° 0,2 mm 10 m/s 759 mmHg 82%
    11:00 +12°C° 0,2 mm 10 m/s 760 mmHg 81%
    12:00 +12°C° 0,7 mm 10 m/s 760 mmHg 80%
    13:00 +12°C° 0,7 mm 10 m/s 761 mmHg 80%
    14:00 +11°C° 0,7 mm 10 m/s 761 mmHg 79%
    15:00 +11°C° 1,1 mm 10 m/s 762 mmHg 79%
    16:00 +11°C° 1,1 mm 10 m/s 762 mmHg 78%
    17:00 +11°C° 1,1 mm 9 m/s 762 mmHg 77%
    18:00 +10°C° 1 mm 9 m/s 763 mmHg 78%
    19:00 +10°C° 1 mm 9 m/s 764 mmHg 78%
    20:00 +10°C° 1 mm 9 m/s 764 mmHg 78%
    21:00 +10°C° 0,3 mm 9 m/s 765 mmHg 78%
    22:00 +9°C° 0,3 mm 8 m/s 765 mmHg 77%
    23:00 +9°C° 0,3 mm 8 m/s 765 mmHg 77%

    26 Octombrie, Joi

    Timp Temperatura Precipitaţii Vânt Presiune Umiditate
    00:00 +9°C° 0 mm 8 m/s 765 mmHg 76%
    01:00 +7°C° 0 mm 8 m/s 766 mmHg 76%
    02:00 +8°C° 0 mm 7 m/s 766 mmHg 75%
    03:00 +8°C° 0 mm 7 m/s 766 mmHg 76%
    04:00 +6°C° 0 mm 7 m/s 766 mmHg 77%
    05:00 +7°C° 0 mm 6 m/s 766 mmHg 78%
    06:00 +7°C° 0 mm 6 m/s 767 mmHg 76%
    07:00 +8°C° 0 mm 6 m/s 767 mmHg 74%
    08:00 +8°C° 0 mm 6 m/s 767 mmHg 72%
    09:00 +9°C° 0 mm 6 m/s 768 mmHg 67%
    10:00 +12°C° 0 mm 5 m/s 768 mmHg 63%
    11:00 +13°C° 0 mm 5 m/s 768 mmHg 58%
    12:00 +14°C° 0 mm 5 m/s 767 mmHg 57%
    13:00 +15°C° 0 mm 4 m/s 767 mmHg 55%
    14:00 +16°C° 0 mm 3 m/s 766 mmHg 54%
    15:00 +16°C° 0 mm 3 m/s 766 mmHg 58%
    16:00 +15°C° 0 mm 2 m/s 766 mmHg 62%
    17:00 +14°C° 0 mm 2 m/s 766 mmHg 66%
    18:00 +13°C° 0 mm 2 m/s 766 mmHg 68%
    19:00 +12°C° 0 mm 2 m/s 766 mmHg 71%
    20:00 +11°C° 0 mm 1 m/s 766 mmHg 73%
    21:00 +10°C° 0 mm 2 m/s 766 mmHg 74%
    22:00 +10°C° 0 mm 2 m/s 766 mmHg 74%
    23:00 +10°C° 0 mm 2 m/s 766 mmHg 75%

    27 Octombrie, Vineri

    Timp Temperatura Precipitaţii Vânt Presiune Umiditate
    00:00 +10°C° 0 mm 2 m/s 765 mmHg 75%
    01:00 +10°C° 0 mm 2 m/s 765 mmHg 76%
    02:00 +9°C° 0 mm 2 m/s 764 mmHg 77%
    03:00 +9°C° 0 mm 3 m/s 764 mmHg 78%
    04:00 +9°C° 0 mm 3 m/s 763 mmHg 79%
    05:00 +9°C° 0 mm 3 m/s 763 mmHg 80%
    06:00 +10°C° 0 mm 3 m/s 763 mmHg 78%
    07:00 +10°C° 0 mm 3 m/s 762 mmHg 76%
    08:00 +11°C° 0 mm 3 m/s 762 mmHg 73%
    09:00 +13°C° 0 mm 3 m/s 762 mmHg 66%
    10:00 +16°C° 0 mm 3 m/s 761 mmHg 58%
    11:00 +18°C° 0 mm 3 m/s 761 mmHg 51%
    12:00 +19°C° 0 mm 3 m/s 760 mmHg 49%
    13:00 +20°C° 0 mm 3 m/s 759 mmHg 47%
    14:00 +21°C° 0 mm 3 m/s 758 mmHg 45%
    15:00 +19°C° 0 mm 3 m/s 758 mmHg 49%
    16:00 +18°C° 0 mm 3 m/s 757 mmHg 54%
    17:00 +17°C° 0 mm 3 m/s 757 mmHg 59%
    18:00 +15°C° 0 mm 4 m/s 757 mmHg 62%
    19:00 +14°C° 0 mm 4 m/s 756 mmHg 64%
    20:00 +14°C° 0 mm 4 m/s 756 mmHg 66%
    21:00 +13°C° 0 mm 4 m/s 756 mmHg 68%
    22:00 +13°C° 0 mm 4 m/s 755 mmHg 71%
    23:00 +13°C° 0 mm 4 m/s 755 mmHg 73%

    28 Octombrie, Sâmbătă

    Timp Temperatura Precipitaţii Vânt Presiune Umiditate
    00:00 +13°C° 0 mm 4 m/s 754 mmHg 75%
    01:00 +13°C° 0 mm 4 m/s 754 mmHg 77%
    02:00 +12°C° 0 mm 4 m/s 753 mmHg 79%
    03:00 +12°C° 0 mm 4 m/s 753 mmHg 80%
    04:00 +12°C° 0 mm 4 m/s 752 mmHg 82%
    05:00 +12°C° 0 mm 4 m/s 752 mmHg 84%
    06:00 +13°C° 0 mm 4 m/s 752 mmHg 83%
    07:00 +13°C° 0 mm 5 m/s 752 mmHg 81%
    08:00 +14°C° 0 mm 5 m/s 752 mmHg 80%
    09:00 +15°C° 0 mm 5 m/s 752 mmHg 74%
    10:00 +18°C° 0 mm 4 m/s 752 mmHg 68%
    11:00 +19°C° 0 mm 4 m/s 752 mmHg 63%
    12:00 +19°C° 0 mm 4 m/s 752 mmHg 60%
    13:00 +20°C° 0 mm 3 m/s 752 mmHg 58%
    14:00 +20°C° 0 mm 3 m/s 752 mmHg 55%
    15:00 +19°C° 0 mm 3 m/s 752 mmHg 61%
    16:00 +18°C° 0 mm 3 m/s 752 mmHg 67%
    17:00 +17°C° 0 mm 3 m/s 752 mmHg 72%
    18:00 +16°C° 1 mm 3 m/s 752 mmHg 77%
    19:00 +16°C° 1 mm 3 m/s 752 mmHg 81%
    20:00 +14°C° 1 mm 3 m/s 752 mmHg 85%
    21:00 +14°C° 2,3 mm 3 m/s 751 mmHg 86%
    22:00 +13°C° 2,3 mm 4 m/s 751 mmHg 88%
    23:00 +13°C° 2,3 mm 4 m/s 751 mmHg 89%

    29 Octombrie, Duminică

    Timp Temperatura Precipitaţii Vânt Presiune Umiditate
    00:00 +13°C° 1,9 mm 4 m/s 751 mmHg 89%
    01:00 +12°C° 1,9 mm 4 m/s 750 mmHg 89%
    02:00 +12°C° 1,9 mm 4 m/s 750 mmHg 90%
    03:00 +12°C° 0,7 mm 4 m/s 750 mmHg 90%
    04:00 +12°C° 0,7 mm 4 m/s 749 mmHg 90%
    05:00 +12°C° 0,7 mm 4 m/s 749 mmHg 90%
    06:00 +10°C° 0,9 mm 5 m/s 749 mmHg 91%
    07:00 +10°C° 0,9 mm 5 m/s 749 mmHg 91%
    08:00 +10°C° 0,9 mm 5 m/s 749 mmHg 92%
    09:00 +9°C° 1,7 mm 6 m/s 749 mmHg 91%
    10:00 +9°C° 1,7 mm 6 m/s 749 mmHg 91%
    11:00 +9°C° 1,7 mm 7 m/s 749 mmHg 90%
    12:00 +9°C° 0,7 mm 7 m/s 748 mmHg 89%
    13:00 +10°C° 0,7 mm 8 m/s 748 mmHg 88%
    14:00 +10°C° 0,7 mm 8 m/s 748 mmHg 87%
    15:00 +10°C° 0,5 mm 8 m/s 748 mmHg 88%
    16:00 +10°C° 0,5 mm 8 m/s 748 mmHg 89%
    17:00 +10°C° 0,5 mm 9 m/s 749 mmHg 89%
    18:00 +10°C° 0,4 mm 9 m/s 749 mmHg 89%
    19:00 +9°C° 0,4 mm 10 m/s 749 mmHg 88%
    20:00 +9°C° 0,4 mm 10 m/s 750 mmHg 88%
    21:00 +9°C° 0,3 mm 10 m/s 750 mmHg 87%
    22:00 +9°C° 0,3 mm 10 m/s 751 mmHg 86%
    23:00 +8°C° 0,3 mm 10 m/s 751 mmHg 85%
    Arată mai mult